User: anonymous   Login
Location: Unspecified
(0.0000°N, 0.0000°E)
Time: 18:23:42
(UTC+00:00)
Language:

Elektron 1 - Orbit

View from above orbital plane
View from above orbital plane
View from above satellite
View from above satellite

Ground track
Ground track

The orbit data is extracted from the following two-line orbital elements,

1   746U 64006A   17291.92153378 +.00000247 +00000-0 +84203-4 0  9995
2   746 060.8322 117.8996 3032815 138.5547 249.0184 09.03336780780806
Epoch (UTC): 18 October 2017 22:07:00
Eccentricity: 0.3032815
inclination: 60.8322°
perigee height: 407 km
apogee height: 6314 km
right ascension of ascending node: 117.8996°
argument of perigee: 138.5547°
revolutions per day: 9.03336780
mean anomaly at epoch: 249.0184°
orbit number at epoch: 78080

The dashed part of the orbit path shows where the satellite is in the earth's shadow,  

DLR